Hourly Data Report for November 01, 2004

SHERBROOKE A
QUEBEC

45°26'00.000" N
71°41'00.000" W
241.40 m
7028124
71610
YSC

Download Data

Hourly Data (November 2004)
Hourly Data Report for November 1, 2004
TIME
LST
Temp Definition
°C
Dew Point Definition
°C
Rel Hum Definition
%
Precip. Amount Definition
mm

Wind Dir Definition
10's deg

Wind Spd Definition
km/h
Visibility Definition
km
Stn Press Definition
kPa
Hmdx Definition


Wind Chill Definition


Weather Definition


00:00 6.3 4.9 91   28 19 12.9 97.77     Rain
01:00 5.4 3.9 90   28 17 15.0 97.89      
02:00 5.1 3.6 90   27 17 15.0 97.96     Drizzle
03:00 4.9 3.1 88   27 20 15.0 98.00      
04:00 4.7 2.9 88   27 11 15.0 98.09      
05:00 4.4 2.2 86   28 7 15.0 98.18     Drizzle
06:00 3.9 1.9 87   26 7 15.0 98.29      
07:00 3.9 1.9 87   24 9 15.0 98.39      
08:00 4.1 2.0 86   26 9 24.1 98.49     Cloudy
09:00 4.3 2.1 86   26 11 16.1 98.57     Rain
10:00 4.1 2.6 90   26 11 16.1 98.64     Cloudy
11:00 4.7 2.4 85   26 13 24.1 98.70     Cloudy
12:00 5.0 2.0 81   28 20 24.1 98.67     Cloudy
13:00 5.2 2.0 80   27 15 24.1 98.78     Cloudy
14:00 5.4 2.0 79   28 11 24.1 98.90     Cloudy
15:00 5.5 1.8 77   29 11 24.1 98.96     Cloudy
16:00 5.5 1.9 78   28 7 24.1 99.02     Cloudy
17:00 5.3 2.1 80   31 9 24.1 99.09     Cloudy
18:00 5.1 2.3 82   29 9 15.0 99.22      
19:00 4.2 3.1 93   31 6 15.0 99.26      
20:00 4.1 3.0 93   25 4 15.0 99.27      
21:00 4.2 3.2 93   26 4 15.0 99.29      
22:00 4.2 2.7 90   28 4 15.0 99.29      
23:00 4.1 2.9 92     0 15.0 99.31      

Notes on Data Quality.

Legend

  • E = Estimated
  • M = Missing
  • NA = Not Available*
  • [empty] = Indicates an unobserved value
Date modified: